Weather Roundup
Issued by NWS

Home | Current Version | Previous Version | Text Only | Print | Product List | Glossary On
Versions: 1 2 3 4 5 6 7 8 9 10 11 12 13 14 15 16 17 18 19 20 21 22 23 24 25 26 27 28 29 30 31 32 33 34 35 36 37 38 39 40 41 42 43 44 45 46 47 48 49 50
916
NZUS93 KARX 220510
HRRWXR

CURRENT HOURLY OBSERVATIONS ACROSS
MUCH OF THE UPPER MISSISSIPPI VALLEY
NATIONAL WEATHER SERVICE LA CROSSE WI
1200 AM CDT FRI MAY 22 2015


...SOUTHEAST MINNESOTA...


CITY           SKY/WX    TMP DP  RH WIND       PRES   REMARKS
ROCHESTER      CLEAR     53  32  44 NW7       30.10R
ROCHESTER/MAYO FAIR      58  31  35 W5        30.09R
WINONA         CLEAR     54  41  62 CALM      30.07R
AUSTIN         CLEAR     52  39  62 CALM      30.10R
ALBERT LEA     CLEAR     50  45  81 CALM      30.10S
DODGE CENTER   PTCLDY    50  36  57 W3        30.10R
PRESTON        CLEAR     53  34  49 NW6       30.09R
OWATONNA       CLEAR     48  37  66 CALM      30.10R
FARIBAULT      FAIR      48  39  71 CALM      30.10R
$$

...ELSEWHERE IN MINNESOTA...


CITY           SKY/WX    TMP DP  RH WIND       PRES   REMARKS
MINNEAPOLIS    CLEAR     58  36  43 N5        30.09R
INTNL FALLS    CLEAR     36  34  92 CALM      30.10R
DULUTH         CLEAR     50  30  46 N7        30.09R
RED WING       CLEAR     50  37  62 CALM      30.07R
REDWOOD FALLS  CLEAR     56  34  43 NW7       30.12R
MANKATO        CLEAR     57  32  38 W3        30.11R
WORTHINGTON    CLEAR     48  28  46 NW3       30.15S
FAIRMONT       FAIR      54  30  40 NW7       30.12S
$$

...SOUTHWEST WISCONSIN...


CITY           SKY/WX    TMP DP  RH WIND       PRES   REMARKS
LA CROSSE      CLEAR     52  45  77 N3        30.05R
PRAIRIE DU CHI CLEAR     49  40  71 CALM      30.05S
BOSCOBEL       CLEAR     48  40  73 CALM      30.05R
LONE ROCK      CLEAR     49  41  74 SW6       30.04R
PLATTEVILLE    CLEAR     56  36  47 W5        30.04R
FORT MC COY    CLEAR     43  39  86 CALM      30.07R
CAMP DOUGLAS   CLEAR     42  40  91 VRB2      30.04R
VIROQUA        FAIR      54  38  55 N6        30.06R
WIS DELLS      CLEAR     54  35  48 NE9       30.05R
$$

...ELSEWHERE IN WISCONSIN...


CITY           SKY/WX    TMP DP  RH WIND       PRES   REMARKS
MILWAUKEE      PTCLDY    48  37  65 N13       30.05R
MADISON        CLEAR     56  38  50 N9        30.03R
GREEN BAY      CLEAR     43  35  73 E5        30.07R
EAU CLAIRE     CLEAR     47  40  76 CALM      30.06R
BLACK RVR FLS  FAIR      40  35  82 CALM      30.05R
MEDFORD        CLEAR     42  35  79 N3        30.06R
WAUSAU         CLEAR     46  35  65 E5        30.05R
WIS RAPIDS     CLEAR     50  34  54 E6        30.07R
MARSHFIELD     CLEAR     52  29  41 NE3       30.05R
RICE LAKE      CLEAR     45  40  83 CALM      30.09R
$$

...NORTHEAST IOWA...


CITY           SKY/WX    TMP DP  RH WIND       PRES   REMARKS
DECORAH        CLEAR     55  36  47 CALM      30.07R
MASON CITY     CLEAR     48  36  63 W7        30.12R
CHARLES CITY   FAIR      54  36  50 W5        30.10R
OELWEIN        CLEAR     54  37  54 NW6       30.09R
$$

...ELSEWHERE IN IOWA...


CITY           SKY/WX    TMP DP  RH WIND       PRES   REMARKS
DES MOINES     PTCLDY    59  42  53 W6        30.13R
IOWA CITY      CLEAR     51  41  68 W3        30.08S
FORT DODGE     CLEAR     48  39  71 CALM      30.13R
$$

...NORTHERN ILLINOIS...


CITY           SKY/WX    TMP DP  RH WIND       PRES   REMARKS
CHICAGO-OHARE  CLEAR     59  38  45 SW6       30.02S
CHICAGO-MIDWAY FAIR      59  39  47 SW7       30.03S
MOLINE         CLEAR     55  44  66 W6        30.05R
ROCKFORD       CLEAR     57  41  55 SW9       30.04S
PEORIA         CLEAR     57  46  66 SW8       30.10S
$$

NOTE: "FAIR" INDICATES FEW OR NO CLOUDS BELOW 12,000 FEET WITH NO
SIGNIFICANT WEATHER AND/OR OBSTRUCTIONS TO VISIBILITY. WIND
SPEEDS ARE IN MILES-PER-HOUR.



USA.gov is the U.S. government's official web portal to all federal, state and local government web resources and services.